Location: Newark
(48.2308°N, 120.8549°W)
Time: 22:06:36
(UTC+00:00)

Explorer 7 - All Passes

Search period start: 25 May 2020 00:00
Search period end: 04 June 2020 00:00
Orbit: 485 x 679 km, 50.3° (Epoch: 24 May)

Date Brightness Start Highest point End Pass type
(mag) Time Alt. Az. Time Alt. Az. Time Alt. Az.
25 May - 07:37:26 10° SSE 07:39:48 14° SE 07:42:06 10° ESE visible
25 May - 09:15:14 10° SW 09:19:42 51° SSE 09:23:55 10° ENE visible
25 May - 10:55:45 10° W 11:00:14 72° N 11:04:25 10° ENE visible
25 May - 12:36:41 10° WNW 12:41:00 73° N 12:45:02 10° E daylight
25 May - 14:17:28 10° WNW 14:21:25 45° SSW 14:25:09 10° SE daylight
26 May - 07:40:53 10° S 07:44:21 21° SE 07:47:43 10° E visible
26 May - 09:19:52 10° WSW 09:24:27 68° SSE 09:28:47 10° ENE visible
26 May - 11:00:39 10° W 11:05:06 66° N 11:09:17 10° E visible
26 May - 12:41:32 10° WNW 12:45:51 85° NNE 12:49:54 10° ESE daylight
26 May - 14:22:25 10° W 14:26:06 31° SW 14:29:35 10° SSE daylight
27 May - 07:44:53 10° SSW 07:48:58 30° SE 07:52:53 10° E visible
27 May - 09:24:37 10° WSW 09:29:16 86° SSE 09:33:37 10° ENE visible
27 May - 11:05:33 10° W 11:10:00 65° N 11:14:10 10° E visible
27 May - 12:46:23 10° WNW 12:50:41 77° SSW 12:54:41 10° ESE daylight
27 May - 14:27:33 10° W 14:30:42 21° SW 14:33:43 10° S daylight
28 May - 06:13:05 10° SE 06:13:53 10° SE 06:14:41 10° ESE visible
28 May - 07:49:12 10° SW 07:53:38 41° SSE 07:57:53 10° ENE visible
28 May - 09:29:29 10° WSW 09:34:06 80° NNW 09:38:27 10° ENE visible
28 May - 11:10:27 10° WNW 11:14:53 68° N 11:19:03 10° E visible
28 May - 12:51:14 10° WNW 12:55:27 58° SSW 12:59:24 10° SE daylight
28 May - 14:33:03 10° WSW 14:35:14 14° SW 14:37:22 10° SSW daylight
29 May - 06:15:28 10° S 06:18:24 16° SE 06:21:16 10° E visible
29 May - 07:53:44 10° SW 07:58:22 57° SSE 08:02:46 10° ENE visible
29 May - 09:34:22 10° W 09:38:57 71° N 09:43:17 10° ENE visible
29 May - 11:15:18 10° WNW 11:19:46 76° NNE 11:23:56 10° E visible
29 May - 12:56:08 10° WNW 13:00:10 41° SSW 13:03:57 10° SE daylight
30 May - 06:19:09 10° SSW 06:22:58 24° SE 06:26:40 10° E visible
30 May - 07:58:24 10° WSW 08:03:09 74° SSE 08:07:36 10° ENE visible
30 May - 09:39:16 10° W 09:43:51 66° N 09:48:09 10° E visible
30 May - 11:20:09 10° WNW 11:24:37 90° ESE 11:28:46 10° ESE visible
30 May - 13:01:07 10° W 13:04:48 29° SW 13:08:18 10° SSE daylight
31 May - 06:23:17 10° SSW 06:27:35 34° SE 06:31:45 10° E visible
31 May - 08:03:12 10° WSW 08:07:57 89° NNW 08:12:27 10° ENE visible
31 May - 09:44:10 10° W 09:48:45 66° N 09:53:03 10° E visible
31 May - 11:25:00 10° WNW 11:29:25 72° SSW 11:33:33 10° ESE visible
31 May - 13:06:17 10° W 13:09:23 20° SW 13:12:21 10° S daylight
01 Jun - 04:50:27 10° SSE 04:52:27 12° SE 04:54:25 10° ESE visible
01 Jun - 06:27:40 10° SW 06:32:16 46° SSE 06:36:42 10° ENE visible
01 Jun - 08:08:03 10° W 08:12:48 77° NNW 08:17:17 10° ENE visible
01 Jun - 09:49:02 10° WNW 09:53:38 71° N 09:57:56 10° E visible
01 Jun - 11:29:51 10° WNW 11:34:10 53° SSW 11:38:12 10° SE daylight
01 Jun - 13:11:56 10° WSW 13:13:54 13° SW 13:15:49 10° SSW daylight
02 Jun - 04:53:37 10° S 04:56:58 19° SE 05:00:16 10° E visible
02 Jun - 06:32:14 10° SW 06:37:00 63° SSE 06:41:34 10° ENE visible
02 Jun - 08:12:57 10° W 08:17:40 70° N 08:22:08 10° ENE visible
02 Jun - 09:53:54 10° WNW 09:58:30 80° NNE 10:02:48 10° ESE visible
02 Jun - 11:34:45 10° WNW 11:38:52 38° SW 11:42:43 10° SE daylight
03 Jun - 04:57:28 10° SSW 05:01:33 27° SE 05:05:31 10° E visible
03 Jun - 06:36:57 10° WSW 06:41:47 80° SSE 06:46:25 10° ENE visible
03 Jun - 08:17:51 10° W 08:22:34 67° N 08:27:00 10° E visible
03 Jun - 09:58:44 10° WNW 10:03:20 85° SSW 10:07:37 10° ESE visible
03 Jun - 11:39:46 10° W 11:43:29 27° SW 11:47:00 10° SSE daylight
